FENGYUN 1C DEB, 38130

Orbit data source: Space-Track

FENGYUN 1C DEB, 38130 is space debris in SSO originally from a launch on Mon, 10 May 1999 UTC launched from the Taiyaun Space Center, China (TSC). Fengyun 1C debris stems from the Chinese weather satellite Fengyun-1C, which was intentionally destroyed by a Chinese anti-satellite missile in 2007. This event dramatically increased the amount of space debris, with thousands of trackable fragments posing hazards to satellites and human spaceflight. The Fengyun 1C debris cloud has become a focal point in discussions about space sustainability and the need for international regulations to prevent the creation of new debris.

Loading next visibility...
Identifier
38130, 1999-025EQB
Orbit
SSO
Country
Flag of CNCN / PRC
Related business
Manufacturer
Unknown
Mission
Spacecraft
Bus & Motor
Unknown
Mass
Unknown
Launch date (UTC)
1999-05-10 (27 years ago)
Launch vehicle
Unknown
Launch site
Taiyaun Space Center, China (TSC)
Object type
Payload
Rocket body
Debris
Shape & HBR
Unknown shape, 0.1 m
Radar Cross Section
Small (<0.1 m²)

Expand to show TLE details & history
Last TLE update: 15 hours ago

TLE from 15 hours ago
0 FENGYUN 1C DEB
1 38130U 99025EQB 26121.58582863  .00001711  00000-0  14904-2 0  9997
2 38130  98.5908 165.1854 0207308 208.1754 150.8057 13.77831744712082
Epoch: 2026-05-01T14:03Z
TLE epoch observation values (Epoch: 2026-05-01T14:03:35.593Z)
Latitude
-0.00008°
Longitude
94.77114°
Altitude
1,108.216 km
Speed
7.232 km/s
True Right ascension
11h 00m 44s
True Declination
0° 00' 00"
Sunlit
Object was in full shadow at epoch
Visualization orbit readout
Latitude
Unknown
Longitude
Unknown
Altitude
Unknown
Speed
Unknown
Apparent Right ascension
Unknown
Apparent Declination
Unknown
Sunlit
N/A
Visualization observer readout
Local Sidereal Time
13:08:34
Azimuth
Unknown
Elevation
Unknown
Doppler factor
Unknown
Orbital elements
Apogee altitude
1,121.103 km
Perigee altitude
816.487 km
Semi-major axis
7,346.932 km
Eccentricity
0.02073
Inclination
98.5908°
RAAN
165.1854°
Arg. of periapsis
208.1754°
True anomaly
151.93871°
Mean anomaly
150.8057°
Eccentric anomaly
151.37474°
Mean motion
3.44655 °/min
Orbital period
104.45 mins
BSTAR
0.0014904
Loading maneuver chart data...
Computing Atmospheric mass density...
Loading historical data...
Loading historical data...
Loading historical data...
Loading historical data...
Loading historical data...
Loading historical data...
Loading historical data...

Documentation

Showing up to 5 results
|